Time,TemperatureF,DewpointF,PressureIn,WindDirection,WindDirectionDegrees,WindSpeedMPH,WindSpeedGustMPH,Humidity,HourlyPrecipIn,Conditions,Clouds,dailyrainin,SoftwareType,DateUTC
2013-04-01 00:03:00,47.0,40.0,-100.00,SW,220,7.0,10.0,75,0.55,,,-99.99,,2013-04-01 04:03:00,
2013-04-01 00:14:00,47.0,39.0,-100.00,WNW,285,6.0,11.0,75,0.00,,,-99.99,,2013-04-01 04:14:00,
2013-04-01 00:23:00,47.0,39.0,-100.00,SW,235,4.0,9.0,75,0.00,,,-99.99,,2013-04-01 04:23:00,
2013-04-01 00:33:00,47.0,39.0,-100.00,SW,225,5.0,9.0,75,0.00,,,-99.99,,2013-04-01 04:33:00,
2013-04-01 00:43:00,47.0,39.0,-100.00,WSW,245,4.0,9.0,73,0.00,,,-99.99,,2013-04-01 04:43:00,
2013-04-01 00:53:00,48.0,40.0,-100.00,SW,235,6.0,9.0,73,0.00,,,-99.99,,2013-04-01 04:53:00,
2013-04-01 01:03:00,47.0,39.0,-100.00,SW,225,6.0,9.0,74,0.00,,,-99.99,,2013-04-01 05:03:00,
2013-04-01 01:12:00,47.0,39.0,-100.00,WSW,250,4.0,11.0,74,0.00,,,-99.99,,2013-04-01 05:12:00,
2013-04-01 01:22:00,47.0,39.0,-100.00,SW,230,6.0,9.0,74,0.00,,,-99.99,,2013-04-01 05:22:00,
2013-04-01 01:32:00,47.0,39.0,-100.00,SW,235,7.0,9.0,74,0.00,,,-99.99,,2013-04-01 05:32:00,
2013-04-01 01:43:00,47.0,39.0,-100.00,WSW,245,6.0,9.0,74,0.00,,,-99.99,,2013-04-01 05:43:00,
2013-04-01 01:52:00,46.0,39.0,-100.00,WSW,245,7.0,11.0,75,0.00,,,-99.99,,2013-04-01 05:52:00,
2013-04-01 02:02:00,46.0,39.0,-100.00,West,270,4.0,10.0,76,0.00,,,-99.99,,2013-04-01 06:02:00,
2013-04-01 02:12:00,46.0,39.0,-100.00,WSW,245,6.0,9.0,76,0.00,,,-99.99,,2013-04-01 06:12:00,
2013-04-01 02:23:00,46.0,39.0,-100.00,WSW,240,6.0,9.0,77,0.00,,,-99.99,,2013-04-01 06:23:00,
2013-04-01 02:33:00,46.0,39.0,-100.00,SW,235,9.0,12.0,77,0.00,,,-99.99,,2013-04-01 06:33:00,
2013-04-01 02:43:00,46.0,39.0,-100.00,SW,235,9.0,13.0,77,0.00,,,-99.99,,2013-04-01 06:43:00,
2013-04-01 02:52:00,45.0,39.0,-100.00,WSW,240,7.0,11.0,78,0.00,,,-99.99,,2013-04-01 06:52:00,
2013-04-01 03:03:00,45.0,39.0,-100.00,WSW,245,7.0,11.0,79,0.00,,,-99.99,,2013-04-01 07:03:00,
2013-04-01 03:13:00,45.0,39.0,-100.00,West,260,6.0,9.0,80,0.00,,,-99.99,,2013-04-01 07:13:00,
2013-04-01 03:22:00,45.0,39.0,-100.00,West,265,4.0,8.0,80,0.00,,,-99.99,,2013-04-01 07:22:00,
2013-04-01 03:32:00,45.0,39.0,-100.00,WSW,255,4.0,9.0,80,0.00,,,-99.99,,2013-04-01 07:32:00,
2013-04-01 03:42:00,45.0,39.0,-100.00,WSW,245,6.0,9.0,79,0.00,,,-99.99,,2013-04-01 07:42:00,
2013-04-01 03:52:00,45.0,39.0,-100.00,West,275,6.0,9.0,79,0.00,,,-99.99,,2013-04-01 07:52:00,
2013-04-01 04:03:00,44.0,38.0,-100.00,West,275,3.0,10.0,77,0.00,,,-99.99,,2013-04-01 08:03:00,
2013-04-01 04:12:00,44.0,35.0,-100.00,NNW,330,4.0,9.0,70,0.00,,,-99.99,,2013-04-01 08:12:00,
2013-04-01 04:22:00,44.0,34.0,-100.00,West,275,6.0,9.0,69,0.00,,,-99.99,,2013-04-01 08:22:00,
2013-04-01 04:32:00,43.0,34.0,-100.00,WNW,285,4.0,8.0,69,0.00,,,-99.99,,2013-04-01 08:32:00,
2013-04-01 04:43:00,43.0,33.0,-100.00,WNW,290,4.0,11.0,69,0.00,,,-99.99,,2013-04-01 08:43:00,
2013-04-01 04:52:00,42.0,33.0,-100.00,West,270,4.0,12.0,71,0.00,,,-99.99,,2013-04-01 08:52:00,
2013-04-01 05:02:00,42.0,33.0,-100.00,WNW,300,4.0,10.0,71,0.00,,,-99.99,,2013-04-01 09:02:00,
2013-04-01 05:12:00,41.0,31.0,-100.00,NW,315,6.0,12.0,68,0.00,,,-99.99,,2013-04-01 09:12:00,
2013-04-01 05:23:00,40.0,29.0,-100.00,NW,310,6.0,12.0,65,0.00,,,-99.99,,2013-04-01 09:23:00,
2013-04-01 05:33:00,40.0,29.0,-100.00,NW,320,6.0,11.0,63,0.00,,,-99.99,,2013-04-01 09:33:00,
2013-04-01 05:42:00,40.0,29.0,-100.00,West,280,4.0,7.0,65,0.00,,,-99.99,,2013-04-01 09:42:00,
2013-04-01 05:53:00,40.0,29.0,-100.00,WNW,290,4.0,8.0,65,0.00,,,-99.99,,2013-04-01 09:53:00,
2013-04-01 06:03:00,40.0,29.0,-100.00,West,280,4.0,12.0,64,0.00,,,-99.99,,2013-04-01 10:03:00,
2013-04-01 06:12:00,40.0,28.0,-100.00,West,280,6.0,9.0,64,0.00,,,-99.99,,2013-04-01 10:12:00,
2013-04-01 06:23:00,39.0,28.0,-100.00,WNW,300,7.0,12.0,63,0.00,,,-99.99,,2013-04-01 10:23:00,
2013-04-01 06:33:00,39.0,28.0,-100.00,West,275,3.0,12.0,64,0.00,,,-99.99,,2013-04-01 10:33:00,
2013-04-01 06:42:00,39.0,28.0,-100.00,WNW,290,4.0,11.0,65,0.00,,,-99.99,,2013-04-01 10:42:00,
2013-04-01 06:53:00,39.0,28.0,-100.00,WNW,285,6.0,10.0,64,0.00,,,-99.99,,2013-04-01 10:53:00,
2013-04-01 07:03:00,39.0,28.0,-100.00,WNW,300,6.0,16.0,64,0.00,,,-99.99,,2013-04-01 11:03:00,
2013-04-01 07:13:00,38.0,28.0,-100.00,WNW,295,7.0,11.0,65,0.00,,,-99.99,,2013-04-01 11:13:00,
2013-04-01 07:23:00,38.0,28.0,-100.00,WNW,290,4.0,7.0,66,0.00,,,-99.99,,2013-04-01 11:23:00,
2013-04-01 07:33:00,38.0,28.0,-100.00,West,280,5.0,8.0,65,0.00,,,-99.99,,2013-04-01 11:33:00,
2013-04-01 07:42:00,38.0,28.0,-100.00,WNW,290,3.0,9.0,66,0.00,,,-99.99,,2013-04-01 11:42:00,
2013-04-01 07:52:00,38.0,28.0,-100.00,NW,310,6.0,11.0,66,0.00,,,-99.99,,2013-04-01 11:52:00,
2013-04-01 08:03:00,38.0,29.0,-100.00,NW,305,3.0,11.0,69,0.00,,,-99.99,,2013-04-01 12:03:00,
2013-04-01 08:12:00,37.0,29.0,-100.00,WNW,290,6.0,12.0,71,0.00,,,-99.99,,2013-04-01 12:12:00,
2013-04-01 08:23:00,37.0,29.0,-100.00,NW,315,6.0,14.0,74,0.00,,,-99.99,,2013-04-01 12:23:00,
2013-04-01 08:32:00,36.0,30.0,-100.00,West,280,6.0,12.0,77,0.00,,,-99.99,,2013-04-01 12:32:00,
2013-04-01 08:42:00,37.0,31.0,-100.00,WNW,295,7.0,9.0,78,0.00,,,-99.99,,2013-04-01 12:42:00,
2013-04-01 08:52:00,37.0,31.0,-100.00,WNW,285,4.0,9.0,78,0.00,,,-99.99,,2013-04-01 12:52:00,
2013-04-01 09:03:00,37.0,31.0,-100.00,WNW,285,6.0,9.0,78,0.00,,,-99.99,,2013-04-01 13:03:00,
2013-04-01 09:12:00,37.0,31.0,-100.00,WSW,255,6.0,9.0,78,0.00,,,-99.99,,2013-04-01 13:12:00,
2013-04-01 09:22:00,37.0,31.0,-100.00,WNW,295,6.0,9.0,79,0.55,,,-99.99,,2013-04-01 13:22:00,
2013-04-01 09:32:00,36.0,31.0,-100.00,WNW,300,6.0,11.0,81,0.00,,,-99.99,,2013-04-01 13:32:00,
2013-04-01 09:42:00,37.0,29.0,-100.00,WNW,300,7.0,12.0,75,0.00,,,-99.99,,2013-04-01 13:42:00,
2013-04-01 09:52:00,37.0,27.0,-100.00,NW,325,10.0,19.0,68,0.00,,,-99.99,,2013-04-01 13:52:00,
2013-04-01 10:04:00,37.0,24.0,-100.00,NW,325,9.0,19.0,61,0.00,,,-99.99,,2013-04-01 14:04:00,
2013-04-01 10:12:00,37.0,25.0,-100.00,WNW,295,8.0,16.0,62,0.00,,,-99.99,,2013-04-01 14:12:00,
2013-04-01 10:22:00,37.0,24.0,-100.00,NW,305,9.0,14.0,57,0.00,,,-99.99,,2013-04-01 14:22:00,
2013-04-01 10:33:00,38.0,21.0,-100.00,NW,320,9.0,14.0,50,0.00,,,-99.99,,2013-04-01 14:33:00,
2013-04-01 10:42:00,38.0,19.0,-100.00,West,280,12.0,17.0,46,0.00,,,-99.99,,2013-04-01 14:42:00,
2013-04-01 10:52:00,37.0,17.0,-100.00,NNW,330,9.0,20.0,44,0.00,,,-99.99,,2013-04-01 14:52:00,
2013-04-01 11:03:00,37.0,17.0,-100.00,NW,315,9.0,14.0,44,0.00,,,-99.99,,2013-04-01 15:03:00,
2013-04-01 11:13:00,38.0,20.0,-100.00,NW,320,7.0,16.0,47,0.00,,,-99.99,,2013-04-01 15:13:00,
2013-04-01 11:22:00,38.0,18.0,-100.00,NW,320,7.0,13.0,44,0.00,,,-99.99,,2013-04-01 15:22:00,
2013-04-01 11:34:00,39.0,18.0,-100.00,WNW,285,9.0,17.0,42,0.00,,,-99.99,,2013-04-01 15:34:00,
2013-04-01 11:43:00,38.0,18.0,-100.00,NW,320,7.0,17.0,42,0.00,,,-99.99,,2013-04-01 15:43:00,
2013-04-01 11:53:00,40.0,21.0,-100.00,NW,325,8.0,16.0,45,0.00,,,-99.99,,2013-04-01 15:53:00,
2013-04-01 12:03:00,39.0,20.0,-100.00,WNW,300,9.0,16.0,46,0.00,,,-99.99,,2013-04-01 16:03:00,
2013-04-01 12:13:00,39.0,20.0,-100.00,West,280,10.0,16.0,45,0.00,,,-99.99,,2013-04-01 16:13:00,
2013-04-01 12:23:00,39.0,20.0,-100.00,WNW,300,9.0,16.0,45,0.00,,,-99.99,,2013-04-01 16:23:00,
2013-04-01 12:33:00,39.0,19.0,-100.00,West,270,11.0,19.0,43,0.00,,,-99.99,,2013-04-01 16:33:00,
2013-04-01 12:43:00,40.0,19.0,-100.00,NW,305,7.0,16.0,43,0.00,,,-99.99,,2013-04-01 16:43:00,
2013-04-01 12:52:00,40.0,18.0,-100.00,WNW,300,9.0,24.0,40,0.00,,,-99.99,,2013-04-01 16:52:00,
2013-04-01 13:03:00,40.0,18.0,-100.00,West,270,8.0,17.0,41,0.00,,,-99.99,,2013-04-01 17:03:00,
2013-04-01 13:12:00,40.0,17.0,-100.00,WNW,295,8.0,17.0,39,0.00,,,-99.99,,2013-04-01 17:12:00,
2013-04-01 13:23:00,39.0,18.0,-100.00,WNW,290,9.0,17.0,41,0.00,,,-99.99,,2013-04-01 17:23:00,
2013-04-01 13:32:00,39.0,17.0,-100.00,WNW,290,7.0,23.0,39,0.00,,,-99.99,,2013-04-01 17:32:00,
2013-04-01 13:42:00,40.0,17.0,-100.00,West,270,14.0,24.0,39,0.00,,,-99.99,,2013-04-01 17:42:00,
2013-04-01 13:52:00,39.0,15.0,-100.00,West,275,11.0,19.0,37,0.00,,,-99.99,,2013-04-01 17:52:00,
2013-04-01 14:03:00,41.0,17.0,-100.00,West,280,14.0,24.0,38,0.00,,,-99.99,,2013-04-01 18:03:00,
2013-04-01 14:12:00,42.0,20.0,-100.00,WNW,290,9.0,19.0,41,0.00,,,-99.99,,2013-04-01 18:12:00,
2013-04-01 14:22:00,42.0,18.0,-100.00,WNW,300,9.0,18.0,38,0.00,,,-99.99,,2013-04-01 18:22:00,
2013-04-01 14:33:00,40.0,16.0,-100.00,WNW,295,12.0,23.0,37,0.00,,,-99.99,,2013-04-01 18:33:00,
2013-04-01 14:42:00,41.0,17.0,-100.00,WNW,285,10.0,15.0,37,0.00,,,-99.99,,2013-04-01 18:42:00,
2013-04-01 14:52:00,41.0,17.0,-100.00,WNW,295,10.0,21.0,38,0.00,,,-99.99,,2013-04-01 18:52:00,
2013-04-01 15:03:00,41.0,17.0,-100.00,West,275,12.0,19.0,37,0.00,,,-99.99,,2013-04-01 19:03:00,
2013-04-01 15:13:00,41.0,16.0,-100.00,NW,305,11.0,17.0,36,0.00,,,-99.99,,2013-04-01 19:13:00,
2013-04-01 15:23:00,42.0,17.0,-100.00,WNW,290,12.0,21.0,37,0.00,,,-99.99,,2013-04-01 19:23:00,
2013-04-01 15:32:00,42.0,17.0,-100.00,WNW,285,10.0,19.0,36,0.00,,,-99.99,,2013-04-01 19:32:00,
2013-04-01 15:42:00,42.0,16.0,-100.00,NW,310,9.0,16.0,35,0.00,,,-99.99,,2013-04-01 19:42:00,
2013-04-01 15:53:00,40.0,16.0,-100.00,WNW,295,12.0,17.0,36,0.00,,,-99.99,,2013-04-01 19:53:00,
2013-04-01 16:02:00,43.0,18.0,-100.00,NW,315,7.0,13.0,36,0.00,,,-99.99,,2013-04-01 20:02:00,
2013-04-01 16:13:00,43.0,17.0,-100.00,West,275,12.0,19.0,36,0.00,,,-99.99,,2013-04-01 20:13:00,
2013-04-01 16:23:00,42.0,17.0,-100.00,West,275,9.0,16.0,37,0.00,,,-99.99,,2013-04-01 20:23:00,
2013-04-01 16:33:00,42.0,18.0,-100.00,WNW,290,10.0,16.0,38,0.00,,,-99.99,,2013-04-01 20:33:00,
2013-04-01 16:43:00,41.0,17.0,-100.00,West,280,9.0,14.0,37,0.00,,,-99.99,,2013-04-01 20:43:00,
2013-04-01 16:52:00,41.0,17.0,-100.00,WNW,290,9.0,16.0,37,0.00,,,-99.99,,2013-04-01 20:52:00,
2013-04-01 17:02:00,43.0,17.0,-100.00,West,260,11.0,25.0,35,0.00,,,-99.99,,2013-04-01 21:02:00,
2013-04-01 17:12:00,41.0,17.0,-100.00,West,265,9.0,27.0,37,0.00,,,-99.99,,2013-04-01 21:12:00,
2013-04-01 17:23:00,41.0,16.0,-100.00,West,275,18.0,22.0,36,0.00,,,-99.99,,2013-04-01 21:23:00,
2013-04-01 17:33:00,42.0,16.0,-100.00,West,275,12.0,21.0,34,0.00,,,-99.99,,2013-04-01 21:33:00,
2013-04-01 17:43:00,42.0,16.0,-100.00,West,280,12.0,17.0,35,0.00,,,-99.99,,2013-04-01 21:43:00,
2013-04-01 17:52:00,42.0,17.0,-100.00,West,275,15.0,24.0,35,0.00,,,-99.99,,2013-04-01 21:52:00,
2013-04-01 18:03:00,42.0,17.0,-100.00,WNW,290,15.0,25.0,35,0.00,,,-99.99,,2013-04-01 22:03:00,
2013-04-01 18:12:00,42.0,17.0,-100.00,West,275,12.0,22.0,36,0.00,,,-99.99,,2013-04-01 22:12:00,
2013-04-01 18:22:00,42.0,17.0,-100.00,WNW,285,12.0,17.0,36,0.00,,,-99.99,,2013-04-01 22:22:00,
2013-04-01 18:33:00,41.0,16.0,-100.00,West,275,15.0,23.0,36,0.00,,,-99.99,,2013-04-01 22:33:00,
2013-04-01 18:43:00,41.0,16.0,-100.00,West,265,14.0,23.0,35,0.00,,,-99.99,,2013-04-01 22:43:00,
2013-04-01 18:52:00,40.0,16.0,-100.00,West,280,14.0,21.0,36,0.00,,,-99.99,,2013-04-01 22:52:00,
2013-04-01 19:02:00,40.0,15.0,-100.00,WNW,295,11.0,17.0,36,0.00,,,-99.99,,2013-04-01 23:02:00,
2013-04-01 19:12:00,40.0,16.0,-100.00,WNW,285,8.0,17.0,37,0.00,,,-99.99,,2013-04-01 23:12:00,
2013-04-01 19:23:00,40.0,18.0,-100.00,West,265,6.0,13.0,39,0.00,,,-99.99,,2013-04-01 23:23:00,
2013-04-01 19:32:00,40.0,18.0,-100.00,West,280,7.0,16.0,40,0.00,,,-99.99,,2013-04-01 23:32:00,
2013-04-01 19:43:00,40.0,17.0,-100.00,WNW,295,9.0,14.0,39,0.00,,,-99.99,,2013-04-01 23:43:00,
2013-04-01 19:52:00,39.0,17.0,-100.00,WNW,295,8.0,21.0,39,0.00,,,-99.99,,2013-04-01 23:52:00,
2013-04-01 20:03:00,39.0,17.0,-100.00,West,265,10.0,14.0,39,0.00,,,-99.99,,2013-04-02 00:03:00,
2013-04-01 20:12:00,39.0,18.0,-100.00,WNW,285,5.0,11.0,42,0.00,,,-99.99,,2013-04-02 00:12:00,
2013-04-01 20:22:00,38.0,18.0,-100.00,WNW,285,2.0,6.0,43,0.00,,,-99.99,,2013-04-02 00:22:00,
2013-04-01 20:33:00,38.0,19.0,-100.00,NW,305,1.0,4.0,45,0.00,,,-99.99,,2013-04-02 00:33:00,
2013-04-01 20:42:00,38.0,19.0,-100.00,WNW,295,3.0,6.0,46,0.00,,,-99.99,,2013-04-02 00:42:00,
2013-04-01 20:52:00,38.0,19.0,-100.00,WNW,285,4.0,6.0,47,0.00,,,-99.99,,2013-04-02 00:52:00,
2013-04-01 21:02:00,38.0,19.0,-100.00,West,270,6.0,9.0,45,0.00,,,-99.99,,2013-04-02 01:02:00,
2013-04-01 21:12:00,38.0,19.0,-100.00,NW,310,2.0,9.0,46,0.00,,,-99.99,,2013-04-02 01:12:00,
2013-04-01 21:22:00,37.0,18.0,-100.00,West,280,3.0,9.0,45,0.00,,,-99.99,,2013-04-02 01:22:00,
2013-04-01 21:32:00,37.0,18.0,-100.00,WNW,290,3.0,7.0,45,0.00,,,-99.99,,2013-04-02 01:32:00,
2013-04-01 21:42:00,36.0,18.0,-100.00,WNW,295,4.0,7.0,46,0.00,,,-99.99,,2013-04-02 01:42:00,
2013-04-01 21:52:00,36.0,17.0,-100.00,WNW,300,4.0,10.0,45,0.00,,,-99.99,,2013-04-02 01:52:00,
2013-04-01 22:03:00,36.0,17.0,-100.00,WSW,255,4.0,9.0,45,0.00,,,-99.99,,2013-04-02 02:03:00,
2013-04-01 22:12:00,36.0,17.0,-100.00,NW,310,3.0,10.0,46,0.00,,,-99.99,,2013-04-02 02:12:00,
2013-04-01 22:22:00,35.0,17.0,-100.00,WNW,300,2.0,7.0,46,0.00,,,-99.99,,2013-04-02 02:22:00,
2013-04-01 22:32:00,35.0,16.0,-100.00,WNW,290,3.0,5.0,46,0.00,,,-99.99,,2013-04-02 02:32:00,
2013-04-01 22:42:00,34.0,17.0,-100.00,NW,305,2.0,6.0,48,0.00,,,-99.99,,2013-04-02 02:42:00,
2013-04-01 22:52:00,35.0,16.0,-100.00,NW,310,4.0,9.0,46,0.00,,,-99.99,,2013-04-02 02:52:00,
2013-04-01 23:02:00,35.0,16.0,-100.00,WNW,300,2.0,9.0,46,0.00,,,-99.99,,2013-04-02 03:02:00,
2013-04-01 23:12:00,34.0,16.0,-100.00,WNW,295,3.0,12.0,46,0.00,,,-99.99,,2013-04-02 03:12:00,
2013-04-01 23:22:00,34.0,15.0,-100.00,WNW,300,2.0,6.0,46,0.00,,,-99.99,,2013-04-02 03:22:00,
2013-04-01 23:33:00,33.0,16.0,-100.00,WNW,295,2.0,6.0,48,0.00,,,-99.99,,2013-04-02 03:33:00,
2013-04-01 23:43:00,33.0,15.0,-100.00,West,260,2.0,4.0,48,0.00,,,-99.99,,2013-04-02 03:43:00,
2013-04-01 23:53:00,32.0,15.0,-100.00,WNW,290,2.0,6.0,49,0.00,,,-99.99,,2013-04-02 03:53:00,